Regional Weather Roundup
Issued by NWS

Home | Current Version | Previous Version | Graphics & Text | Print | Product List | Glossary On
Versions: 1 2 3 4 5 6 7 8 9 10 11 12 13 14 15 16 17 18 19 20 21 22 23 24 25 26 27
000
ASUS45 KBOU 261107
RWRCO

WEATHER ROUNDUP FOR COLORADO
NATIONAL WEATHER SERVICE DENVER/BOULDER CO
500 AM MDT TUE SEP 26 2017

NOTE: "FAIR" INDICATES FEW OR NO CLOUDS BELOW 12000 FEET WITH NO
SIGNIFICANT WEATHER AND/OR OBSTRUCTIONS TO VISIBILITY.

COZ001>005-013-030-031-261200-
...NORTHWEST COLORADO...

CITY           SKY/WX    TMP DP  RH WIND       PRES   REMARKS
CRAIG          FAIR      23  21  92 CALM      30.19S
HAYDEN         FAIR      31  26  82 E10       30.20S WCI  22
MEEKER         FAIR      28  25  88 CALM      30.17F
RABBIT EARS PA FAIR      28  21  74 S5        30.24S WCI  23
STEAMBOAT SPGS FAIR      27  25  92 CALM      30.20R
WALDEN         FAIR      23  19  86 SE5       30.22S WCI  17
$$

COZ006>008-011-261200-
...WEST CENTRAL VALLEYS...

CITY           SKY/WX    TMP DP  RH WIND       PRES   REMARKS
GRAND JUNCTION FAIR      40  29  64 CALM      30.08F
MONTROSE       FAIR      37  30  75 SE8       30.15R
EAGLE          FAIR      29  25  85 E3        30.22R
RIFLE          FAIR      35  31  85 E5        30.14S WCI  31
DELTA          FAIR      39  32  76 N5        30.13R
NUCLA          FAIR      37  28  70 E5        30.14S
$$

COZ017>023-064>068-261200-
...SOUTHWEST COLORADO...

CITY           SKY/WX    TMP DP  RH WIND       PRES   REMARKS
DURANGO        FAIR      29  21  72 S3        30.10R
CORTEZ         FAIR      32  28  85 E5        30.08S WCI  27
PAGOSA SPRINGS FAIR      29  20  68 CALM      30.14S
TELLURIDE      FAIR      33  15  47 SE7       30.19F WCI  27
WOLF CREEK PAS FAIR      30  -9  17 SW8       30.33S WCI  23
$$

COZ009-010-012-014-032>034-037-058>063-261200-
...CENTRAL COLORADO...

CITY           SKY/WX    TMP DP  RH WIND       PRES   REMARKS
ASPEN          FAIR      27  22  81 SW7       30.18R WCI  19
BUENA VISTA    CLOUDY    41  32  71 CALM      30.20R
COPPER MTN     FAIR      34  14  44 MISG      30.28S
BERTHOUD PASS  FAIR      23  14  68 SW7       30.29S WCI  15
COTTONWOOD PAS CLOUDY    39  34  81 SE3       30.25R
GUNNISON       FAIR      22  15  75 CALM      30.21R
KREMMLING      FAIR      28  23  80 CALM      30.24R
LEADVILLE      MOCLDY    29  23  78 CALM      30.22S
MONARCH PASS   FAIR      28  16  59 S8        30.39R WCI  20
SALIDA         FAIR      39  33  80 W5        30.27R
SUNLIGHT       FAIR      27  21  80 E3        30.27F
WILKERSON PASS CLOUDY   N/A N/A N/A S5        30.31S FOG
$$

COZ069>075-261200-
...SAN LUIS VALLEY/SANGRE DE CRISTO MOUNTAINS...

CITY           SKY/WX    TMP DP  RH WIND       PRES   REMARKS
ALAMOSA        FAIR      25  23  92 NE5       30.16S WCI  19
DEL NORTE      FAIR      29  16  57 W10       30.19S WCI  20
LA VETA PASS   FOG       34  32  93 MISG      30.36S VSB<1/4
SAGUACHE       FAIR      28  19  69 NW9       30.19S WCI  20
$$

COZ035-036-038>040-261200-
...NORTHERN COLORADO FRONT RANGE...

CITY           SKY/WX    TMP DP  RH WIND       PRES   REMARKS
DENVER INTL AP CLOUDY    45  43  93 E3        30.16R
DMNS CITY PARK   N/A     46  45  97 N7        30.17R
AURORA         CLOUDY    45  44  99 CALM      30.17R
FRONT RANGE AP CLOUDY    46  45  93 E3        30.17R
ERIE MUNI ARPT NOT AVBL
BOULDER MUN AP CLOUDY    45  45 100 CALM      30.16S
CENTENNIAL     CLOUDY    45  43  93 CALM      30.17R
BROOMFIELD     CLOUDY    45  43  93 N3        30.18R
FORT COLLINS   CLOUDY    46  43  89 SE6       30.18R
LONGMONT       CLOUDY    48  44  88 CALM      30.19R
$$

COZ041-046-047-076>085-087-088-261200-
...PIKES PEAK/PALMER DIVIDE AND SOUTHERN FOOTHILLS...

CITY           SKY/WX    TMP DP  RH WIND       PRES   REMARKS
COLO. SPRINGS  FOG       45  44  97 SE10      30.19S VSB 1/2
A. F. ACADEMY  DRIZZLE   45  43  93 SE9       30.17S FOG
SCHRIEVER AFB  LGT RAIN  43  43 100 MISG      30.19R FOG
CHEYENNE MTN   LGT RAIN  41  41  99 SE8       30.13S
ELLICOTT       CLOUDY   N/A N/A N/A SE7       30.17S
FALCON         SNOW      42  42  99 S8        30.20S VSB 1/4
FORT CARSON    FOG       45  45 100 SE12      30.16S VSB 3/4
LIMON            N/A    N/A N/A N/A MISG      30.17S
MONUMENT HILL  MOCLDY    37  36  93 CALM      30.20R
CANON CITY     NOT AVBL
WALSENBURG     NOT AVBL
TRINIDAD       CLOUDY    46  46 100 E6        30.17R
$$

COZ042>045-048>051-090-091-261200-
...NORTHEAST COLORADO...

CITY           SKY/WX    TMP DP  RH WIND       PRES   REMARKS
GREELEY ARPT   CLOUDY    44  42  93 CALM      30.18S
AKRON          FAIR      39  36  89 S3        30.15S
BURLINGTON     CLOUDY    45  44  97 CALM      30.16R
WRAY           CLOUDY    46  46 100 CALM      30.16S
YUMA           CLOUDY    36  36 100 SW5       30.15S FOG
STERLING       FAIR      36  36 100 CALM      30.15S
HOLYOKE        CLOUDY    46  43  87 W3        30.15S
FORT MORGAN    FAIR      39  37  94 W5        30.16S FOG
$$

COZ086-089-092>099-261200-
...SOUTHEAST COLORADO...

CITY           SKY/WX    TMP DP  RH WIND       PRES   REMARKS
PUEBLO         CLOUDY    48  46  93 SE10      30.15S
LA JUNTA       CLOUDY    50  47  89 E5        30.16R
LAMAR          CLOUDY    50  47  89 N8        30.13S
SPRINGFIELD      N/A     47  47 100 N9        30.14R
$$




USA.gov is the U.S. government's official web portal to all federal, state and local government web resources and services.